Regional Weather Roundup
Issued by NWS

Home | Current Version | Previous Version | Graphics & Text | Print | Product List | Glossary On
Versions: 1 2 3 4 5 6 7 8 9 10 11 12 13 14 15 16 17 18 19 20 21 22 23 24 25 26 27 28 29 30 31 32 33 34 35 36 37 38 39 40 41 42 43 44 45 46 47 48 49 50
000
ASUS43 KLMK 301702
RWRKY
KENTUCKY REGIONAL WEATHER ROUNDUP
NATIONAL WEATHER SERVICE LOUISVILLE KY
100 PM EDT MON MAR 30 2015

NOTE "FAIR" INDICATES FEW OR NO CLOUDS BELOW 12,000 FEET
WITH NO SIGNIFICANT WEATHER AND/OR OBSTRUCTIONS TO VISIBILITY.

KYZ001>023-026-027-061>063-070>075-301800-
WESTERN AND SOUTH CENTRAL KENTUCKY

CITY           SKY/WX    TMP DP  RH WIND       PRES   REMARKS
PADUCAH        MOSUNNY   63  29  27 N7        30.21F
HENDERSON      SUNNY     57  34  41 NW5       30.20F
OWENSBORO      SUNNY     59  35  40 NW9       30.20F
HOPKINSVILLE   SUNNY     61  31  32 NW7       30.21S
BOWLING GREEN  SUNNY     60  26  27 NW10G20   30.21R
GLASGOW        NOT AVBL
$$

KYZ024-025-028>034-038-045-046-053-301800-
NORTH CENTRAL KENTUCKY

CITY           SKY/WX    TMP DP  RH WIND       PRES   REMARKS
LOUISVILLE/SDF MOSUNNY   60  26  27 NW15G29   30.17S
LOUISVILLE/LOU SUNNY     58  28  32 NW14      30.16F
FORT KNOX      SUNNY     57  28  32 NW14G20   30.16S
$$

KYZ035>037-039>044-047>052-055>060-089>105-301800-
NORTHEAST KENTUCKY

CITY           SKY/WX    TMP DP  RH WIND       PRES   REMARKS
LEXINGTON      MOSUNNY   57  31  37 NW10      30.15S
COVINGTON      MOSUNNY   54  29  38 W16G25    30.12S
FRANKFORT      MOSUNNY   56  28  34 NW12G22   30.14F
$$

KYZ054-064>069-076>088-106>120-301800-
SOUTHEAST KENTUCKY

CITY           SKY/WX    TMP DP  RH WIND       PRES   REMARKS
JACKSON        MOSUNNY   54  28  36 W7G17     30.13S
LONDON         PTSUNNY   57  31  37 NW8       30.15S
SOMERSET       NOT AVBL
MIDDLESBORO    SUNNY     58  35  41 NW9G24    30.14S
MONTICELLO     NOT AVBL
$$



USA.gov is the U.S. government's official web portal to all federal, state and local government web resources and services.